AO-85 (40967 NORAD) Tracking and Keplerian Element Data

This shows tracking and keplerian element data for the satellite.

Feedback or suggestion? Click here.




ElementValue
Catalog40967
NameAO-85
Epoch Orbit9352
Epoch Day73.37412752
Epoch Year2019
RAAN90.8685
Inclination64.7753
Eccentricity0.0209136
Argument of Perigee232.5827
Mean Anonmoly125.6019
Mean Motion14.75894734
Decay Rate6.4E-07
L11 40967U 15058D 19073.37412752 .00000064 00000-0 24964-4 0 06251
L22 40967 064.7753 090.8685 0209136 232.5827 125.6019 14.75894734093521

Live tracking and technical data element details for AO-85 (NORAD 40967). AO-85 can be tracked NOW for your location showing map with azimuth and elevation plus other details from your city location.

Track the satellite on the map from your city or location and see movement details for azimuth, elevation, latitude, longitude, range, height, and movement on the map or in text.







IsCatalogInMostPopularTable: catalog: 40967, numindb: 260
Update: records affected: 1



GetName: 40967 AO-85

Hit Count: updated at: Wed, 20 Mar 2019 04:46:28 GMT